Вернуться в каталог

STARLINK-33943

АктивенСвязьVLEO
NORAD 63884·PAYLOAD·🇺🇸 United States

Запущен May 10, 2025 с Vandenberg Space Force Base

Loading…

Ближайшие Пролёты (ближайшие 24 часа)

TLE

СвежийSource: CelesTrak SupGP

Эпоха: Sep 15, 2026, 03:45 UTC

1 63884C 25094W   26258.15673611 -.00021138  00000+0 -73535-3 0  2582
2 63884  69.9982 115.1158 0003201 275.0023 114.2777 15.29588857    19

Отслеживайте STARLINK-33943 в реальном времени с AllMySat

Download on the App Store